| time (UTC) | temp C | wind direction | speed KPH | gust KPH | rain 1hr cm | rain 24hr cm | rain mn cm | humidity % | barometer mb |
| 20260506201541 | 16 | 197 | 1.6 | 22.5 | 0.03 | 0.03 | 0.03 | 84 | 1006.5 |
| 20260506200040 | 16 | 202 | 4.8 | 12.9 | 0.00 | 0.00 | 0.00 | 81 | 1006.5 |
| 20260506194540 | 16 | 140 | 6.4 | 12.9 | 0.00 | 0.00 | 0.00 | 79 | 1006.8 |
| 20260506193044 | 17 | 229 | 8.0 | 25.7 | 0.00 | 0.00 | 0.00 | 75 | 1006.7 |
| 20260506191539 | 17 | 202 | 11.3 | 33.8 | 0.00 | 0.00 | 0.00 | 74 | 1006.8 |
| 20260506190039 | 17 | 217 | 11.3 | 30.6 | 0.00 | 0.00 | 0.00 | 73 | 1006.5 |
| 20260506184543 | 17 | 221 | 9.7 | 29.0 | 0.00 | 0.00 | 0.00 | 72 | 1006.8 |
| 20260506183036 | 18 | 208 | 11.3 | 20.9 | 0.00 | 0.00 | 0.00 | 71 | 1006.8 |
| 20260506181540 | 18 | 189 | 11.3 | 35.4 | 0.00 | 0.00 | 0.00 | 71 | 1006.9 |
| 20260506180034 | 18 | 197 | 11.3 | 30.6 | 0.00 | 0.00 | 0.00 | 69 | 1007.5 |
| 20260506174633 | 19 | 192 | 8.0 | 38.6 | 0.00 | 0.00 | 0.00 | 69 | 1007.6 |
| 20260506173031 | 20 | 203 | 11.3 | 27.4 | 0.00 | 0.00 | 0.00 | 67 | 1007.8 |
| 20260506171534 | 19 | 296 | 6.4 | 37.0 | 0.00 | 0.00 | 0.00 | 69 | 1007.4 |
| 20260506170030 | 19 | 180 | 9.7 | 20.9 | 0.00 | 0.00 | 0.00 | 67 | 1007.8 |
| 20260506164543 | 20 | 186 | 4.8 | 19.3 | 0.00 | 0.00 | 0.00 | 68 | 1007.8 |
| 20260506163025 | 19 | 192 | 6.4 | 33.8 | 0.00 | 0.00 | 0.00 | 68 | 1008.0 |
| 20260506161524 | 20 | 161 | 8.0 | 32.2 | 0.00 | 0.00 | 0.00 | 67 | 1008.4 |
| 20260506160023 | 20 | 157 | 8.0 | 22.5 | 0.00 | 0.00 | 0.00 | 67 | 1008.5 |
| 20260506154521 | 20 | 186 | 8.0 | 33.8 | 0.00 | 0.00 | 0.00 | 67 | 1008.7 |
| 20260506153021 | 20 | 219 | 3.2 | 20.9 | 0.00 | 0.00 | 0.00 | 67 | 1009.0 |
| 20260506151520 | 20 | 175 | 8.0 | 20.9 | 0.00 | 0.00 | 0.00 | 67 | 1009.0 |
| 20260506150017 | 20 | 207 | 6.4 | 25.7 | 0.00 | 0.00 | 0.00 | 67 | 1009.0 |
| 20260506144523 | 20 | 217 | 8.0 | 32.2 | 0.00 | 0.00 | 0.00 | 66 | 1008.8 |
| 20260506143012 | 20 | 214 | 9.7 | 25.7 | 0.00 | 0.00 | 0.00 | 68 | 1008.7 |
| 20260506141522 | 19 | 204 | 9.7 | 17.7 | 0.00 | 0.00 | 0.00 | 68 | 1008.7 |
| 20260506140005 | 19 | 207 | 8.0 | 19.3 | 0.00 | 0.00 | 0.00 | 69 | 1008.9 |
| 20260506134500 | 18 | 188 | 6.4 | 25.7 | 0.00 | 0.00 | 0.00 | 71 | 1009.4 |
| 20260506133109 | 18 | 174 | 9.7 | 25.7 | 0.00 | 0.00 | 0.00 | 74 | 1009.6 |
| 20260506131614 | 17 | 209 | 6.4 | 24.1 | 0.00 | 0.00 | 0.00 | 76 | 1009.5 |
| 20260506130049 | 16 | 191 | 6.4 | 27.4 | 0.00 | 0.00 | 0.00 | 78 | 1009.7 |
| 20260506124546 | 16 | 216 | 8.0 | 30.6 | 0.00 | 0.00 | 0.00 | 80 | 1009.4 |
| 20260506123044 | 16 | 156 | 8.0 | 25.7 | 0.00 | 0.00 | 0.00 | 81 | 1009.2 |
| 20260506121545 | 15 | 146 | 9.7 | 25.7 | 0.00 | 0.00 | 0.00 | 82 | 1009.7 |
| 20260506120056 | 15 | 200 | 8.0 | 24.1 | 0.00 | 0.00 | 0.00 | 83 | 1009.8 |
| 20260506114537 | 15 | 180 | 4.8 | 27.4 | 0.00 | 0.00 | 0.00 | 85 | 1009.9 |
| 20260506113035 | 15 | 159 | 6.4 | 22.5 | 0.00 | 0.00 | 0.00 | 85 | 1009.9 |
| 20260506111536 | 14 | 219 | 6.4 | 16.1 | 0.00 | 0.00 | 0.00 | 86 | 1009.9 |
| 20260506110034 | 14 | 169 | 8.0 | 25.7 | 0.00 | 0.00 | 0.00 | 86 | 1009.9 |
| 20260506104631 | 14 | 207 | 4.8 | 22.5 | 0.00 | 0.00 | 0.00 | 86 | 1010.0 |
| 20260506103037 | 14 | 203 | 4.8 | 12.9 | 0.00 | 0.00 | 0.00 | 86 | 1009.9 |
| 20260506101521 | 14 | 196 | 6.4 | 14.5 | 0.00 | 0.00 | 0.00 | 86 | 1009.7 |
| 20260506100019 | 14 | 137 | 4.8 | 16.1 | 0.00 | 0.00 | 0.00 | 86 | 1009.7 |
| 20260506094515 | 14 | 176 | 8.0 | 24.1 | 0.00 | 0.00 | 0.00 | 86 | 1009.7 |
| 20260506093019 | 14 | 153 | 6.4 | 16.1 | 0.00 | 0.00 | 0.00 | 85 | 1009.5 |
| 20260506091510 | 14 | 200 | 8.0 | 12.9 | 0.00 | 0.00 | 0.00 | 85 | 1009.6 |
| 20260506090008 | 14 | 203 | 6.4 | 22.5 | 0.00 | 0.00 | 0.00 | 85 | 1009.6 |
| 20260506084509 | 14 | 204 | 3.2 | 19.3 | 0.00 | 0.00 | 0.00 | 85 | 1009.8 |
| 20260506083006 | 14 | 252 | 4.8 | 33.8 | 0.00 | 0.00 | 0.00 | 84 | 1009.8 |
| 20260506081504 | 14 | 205 | 8.0 | 25.7 | 0.00 | 0.00 | 0.00 | 84 | 1009.7 |
| 20260506073100 | 14 | 134 | 6.4 | 22.5 | 0.00 | 0.00 | 0.00 | 83 | 1009.7 |
| 20260506071559 | 14 | 206 | 3.2 | 16.1 | 0.00 | 0.00 | 0.00 | 82 | 1009.5 |
| 20260506061552 | 15 | 196 | 6.4 | 25.7 | 0.00 | 0.00 | 0.00 | 80 | 1009.4 |
| 20260506044538 | 15 | 268 | 6.4 | 22.5 | 0.00 | 0.00 | 0.00 | 76 | 1010.0 |
| 20260506043031 | 15 | 205 | 11.3 | 27.4 | 0.00 | 0.00 | 0.00 | 75 | 1010.0 |
| 20260506041528 | 15 | 194 | 4.8 | 16.1 | 0.00 | 0.00 | 0.00 | 74 | 1009.9 |
| 20260506040027 | 15 | 150 | 9.7 | 25.7 | 0.00 | 0.00 | 0.00 | 73 | 1009.9 |
| 20260506034522 | 15 | 173 | 6.4 | 27.4 | 0.00 | 0.00 | 0.00 | 72 | 1009.8 |
| 20260506033021 | 15 | 286 | 6.4 | 19.3 | 0.00 | 0.00 | 0.00 | 72 | 1009.6 |
| 20260506031520 | 15 | 162 | 4.8 | 24.1 | 0.00 | 0.00 | 0.00 | 71 | 1009.6 |
| 20260506030021 | 15 | 202 | 6.4 | 20.9 | 0.00 | 0.00 | 0.00 | 71 | 1009.4 |
| 20260506024520 | 15 | 168 | 8.0 | 24.1 | 0.00 | 0.00 | 0.00 | 71 | 1009.5 |
| 20260506023034 | 15 | 247 | 11.3 | 27.4 | 0.00 | 0.00 | 0.00 | 71 | 1009.4 |
| 20260506021531 | 15 | 200 | 6.4 | 32.2 | 0.00 | 0.00 | 0.00 | 71 | 1009.3 |
| 20260506020017 | 15 | 180 | 8.0 | 25.7 | 0.00 | 0.00 | 0.00 | 71 | 1009.4 |
| 20260506014619 | 15 | 211 | 6.4 | 17.7 | 0.00 | 0.00 | 0.00 | 71 | 1009.5 |
| 20260506013019 | 15 | 224 | 4.8 | 27.4 | 0.00 | 0.00 | 0.00 | 70 | 1009.4 |
| 20260506011515 | 15 | 188 | 4.8 | 17.7 | 0.00 | 0.00 | 0.00 | 71 | 1009.1 |
| 20260506010015 | 15 | 165 | 8.0 | 20.9 | 0.00 | 0.00 | 0.00 | 71 | 1009.1 |
| 20260506004515 | 15 | 198 | 4.8 | 16.1 | 0.00 | 0.00 | 0.00 | 71 | 1008.9 |
| 20260506003015 | 15 | 186 | 4.8 | 17.7 | 0.00 | 0.00 | 0.00 | 70 | 1008.8 |
| 20260506001513 | 16 | 204 | 4.8 | 19.3 | 0.00 | 0.00 | 0.00 | 68 | 1008.6 |
| 20260506000008 | 16 | 211 | 4.8 | 20.9 | 0.00 | 0.00 | 0.00 | 67 | 1008.1 |
| 20260505234513 | 16 | 200 | 4.8 | 22.5 | 0.00 | 0.00 | 0.00 | 66 | 1007.8 |
| 20260505233007 | 17 | 141 | 8.0 | 29.0 | 0.00 | 0.00 | 0.00 | 65 | 1007.7 |
| 20260505231507 | 17 | 150 | 8.0 | 35.4 | 0.00 | 0.00 | 0.00 | 64 | 1007.6 |
| 20260505230010 | 17 | 180 | 8.0 | 25.7 | 0.00 | 0.00 | 0.00 | 62 | 1007.0 |
| 20260505224505 | 18 | 131 | 9.7 | 29.0 | 0.00 | 0.00 | 0.00 | 59 | 1006.8 |
| 20260505223005 | 19 | 236 | 3.2 | 25.7 | 0.00 | 0.00 | 0.00 | 57 | 1006.9 |
| 20260505221504 | 20 | 197 | 12.9 | 32.2 | 0.00 | 0.00 | 0.00 | 54 | 1006.8 |
| 20260505220003 | 20 | 205 | 9.7 | 27.4 | 0.00 | 0.00 | 0.00 | 54 | 1006.6 |
| 20260505214502 | 20 | 192 | 9.7 | 33.8 | 0.00 | 0.00 | 0.00 | 55 | 1006.5 |
| 20260505213004 | 20 | 204 | 8.0 | 24.1 | 0.00 | 0.00 | 0.00 | 55 | 1006.5 |
| 20260505211502 | 21 | 185 | 14.5 | 30.6 | 0.00 | 0.00 | 0.00 | 52 | 1006.5 |
| 20260505210100 | 21 | 223 | 6.4 | 35.4 | 0.00 | 0.00 | 0.00 | 53 | 1006.3 |
| 20260505204600 | 22 | 156 | 11.3 | 25.7 | 0.00 | 0.00 | 0.00 | 51 | 1006.5 |
| 20260505203121 | 22 | 190 | 3.2 | 22.5 | 0.00 | 0.00 | 0.00 | 50 | 1006.4 |